[[{"header":{"parameterUnit":"m.s-1","parameterCategory":1,"la1":30.2991,"la2":30.254,"lo1":-89.0895,"lo2":-89.0444,"dy":0.0017,"dx":0.0017,"nx":28,"ny":28,"refTime":"2026-02-13T09:00:00:Z","depth":0,"parameterNumber":2,"parameterNumberName":"U-component_of_WINDS"},"data":[0,0,0,0,0,0,0,0,0,0,0,0,0,0,0,0,0,0,0,0,0,0,0,0,0,0,0,0,0,0,0,0,0,0,0,0,0,0,0,0,0,0,0,0,0,0,0,0,0,0,0,0,0,0,0,0,0,0,-2.9576,-2.9577,0,-2.9658,-2.9659,-2.966,-2.9615,-2.9612,-2.961,-2.9608,-2.9695,-2.97,-2.9704,0,0,0,0,0,0,0,0,0,0,0,0,0,-2.9385,-2.9388,-2.9576,-2.9577,-2.9578,-2.9658,-2.9659,-2.966,-2.9615,-2.9612,-2.961,-2.9607,-2.9694,-2.9699,-2.9704,0,0,0,0,0,0,0,0,0,0,0,0,0,-2.9467,-2.939,-2.9576,-2.9565,-2.9565,-2.9658,-2.9659,-2.966,-2.9616,-2.9612,-2.9609,-2.9606,-2.9692,-2.9699,-2.9705,-2.9814,0,0,-2.9726,-2.9728,0,0,0,0,0,0,0,0,-2.9463,-2.9475,-2.9566,-2.9566,-2.9566,-2.9623,-2.9623,-2.9712,-2.9617,-2.9597,-2.9608,-2.9604,-2.9674,-2.9682,-2.9705,-2.9818,-2.9822,-2.9726,-2.973,-2.9733,-2.9735,0,0,0,0,0,0,0,-2.9457,-2.9471,-2.9609,-2.9567,-2.9567,-2.9558,-2.9566,-2.964,-2.9654,-2.9598,-2.9595,-2.9605,-2.9674,-2.9699,-2.9707,-2.9823,-2.9726,-2.9732,-2.9736,-2.9739,-3.0031,-3.0035,0,0,0,0,0,0,-2.9452,-2.9466,-2.9606,-2.9611,-2.9505,-2.9564,-2.9573,-2.9608,-2.9653,-2.9656,-2.9608,-2.9603,-2.9689,-2.9699,-2.971,-2.984,-2.9733,-2.9739,-2.9743,-3.0027,-3.0032,-3.0036,0,0,0,0,0,0,-2.9448,-2.9464,-2.9603,-2.9538,-2.9555,-2.9571,-2.9611,-2.9611,-2.9636,-2.966,-2.9662,-2.9631,-2.9687,-2.97,-2.9788,-2.9843,-2.9742,-2.9748,-3.0023,-3.0029,-3.0034,-3.0103,0,0,0,0,0,0,-2.9442,-2.9463,-2.9504,-2.9539,-2.9558,-2.9679,-2.9614,-2.9615,-2.9647,-2.9641,-2.9682,-2.9686,-2.9685,-2.9779,-2.9795,-2.985,-2.9753,-3.0018,-3.0025,-3.0032,-3.0096,-3.011,-3.0122,0,0,0,0,0,-2.9436,-2.952,-2.9506,-2.9523,-2.9609,-2.9682,-2.9693,-2.969,-2.9652,-2.9694,-2.9709,-2.9684,-2.9834,-2.9788,-2.9806,-2.9864,-3.0015,-3.0023,-3.0032,-3.009,-3.0107,-3.0122,0,0,0,0,0,0,-2.9492,-2.9525,-2.9509,-2.9608,-2.9643,-2.9675,-2.9727,-2.9709,-2.9756,-2.9748,-2.9743,-2.9753,-2.9845,-2.9863,-2.9811,-2.9972,-2.9919,-2.9931,-2.9957,-2.9974,-2.9987,-2.9981,-2.9759,0,0,0,0,0,-2.9516,-2.9571,-2.9597,-2.9682,-2.97,-2.9711,-2.9742,-2.9737,-2.9773,-2.9788,-2.981,-2.9847,-2.9902,-2.9939,-2.9991,-3.0098,-3.0107,-3.0147,-3.0161,-3.0171,-3.0182,-3.0241,-3.026,-3.0064,-3.0064,-3.0064,0,0,-2.9566,-2.9591,-2.9626,-2.9694,-2.972,-2.9779,-2.9723,-2.9788,-2.9832,-2.9798,-2.9882,-2.99,-2.9941,-3.0039,-3.0084,-3.0058,-3.0239,-3.0182,-3.0191,-3.0196,-3.0252,-3.0271,-3.0287,-3.007,-3.0069,-3.0068,0,0,-2.9687,-2.9711,-2.9784,-2.9812,-2.9852,-2.9858,-2.9876,-2.9911,-2.9921,-3.0006,-2.9982,-3.0035,-3.013,-3.0161,-3.0189,-3.0323,-3.0303,-3.034,-3.041,-3.0468,-3.0483,-3.0497,-3.0545,-3.0563,-3.0351,-3.0351,-3.0352,0,-2.9744,-2.983,-2.9824,-2.9891,-2.9922,-2.9893,-2.9968,-2.9996,-3.0052,-3.0074,-3.0044,-3.0164,-3.019,-3.0295,-3.0328,-3.0351,-3.0372,-3.0336,-3.0481,-3.0495,-3.0508,-3.0554,-3.0572,-3.0356,-3.0355,-3.0355,-3.0354,0,-2.9899,-2.996,-3.0014,-3.0068,-3.0105,-3.0176,-3.0182,-3.0221,-3.0212,-3.0223,-3.031,-3.034,-3.0398,-3.0423,-3.0416,-3.0528,-3.0511,-3.0481,-3.0427,-3.0531,-3.0574,-3.0592,-3.0362,-3.036,-3.0359,-3.0358,0,0,-3.0057,-3.0107,-3.0127,-3.0152,-3.0194,-3.0242,-3.0312,-3.0368,-3.0402,-3.0442,-3.0501,-3.0583,-3.0556,-3.0588,-3.0584,-3.0635,-3.074,-3.0599,-3.06,-3.0625,-3.0867,-3.0889,-3.0909,-3.0727,-3.073,-3.0733,-3.0864,0,-3.0181,-3.0302,-3.0299,-3.0412,-3.0469,-3.0443,-3.0504,-3.0538,-3.055,-3.06,-3.0614,-3.0672,-3.0632,-3.0651,-3.07,-3.0717,-3.0789,-3.0707,-3.0783,-3.0786,-3.0773,-3.0932,-3.0955,-3.1077,-3.088,-3.0883,-3.0885,0,-3.0342,-3.0386,-3.0505,-3.054,-3.0563,-3.0618,-3.067,-3.0718,-3.0757,-3.0762,-3.0798,-3.0787,-3.0859,-3.0803,-3.0904,-3.0849,-3.088,-3.0893,-3.0898,-3.0905,-3.0842,-3.0944,-3.1116,-3.1134,-3.0912,-3.091,-3.0908,0,-3.0446,-3.0535,-3.0618,-3.064,-3.0682,-3.0722,-3.0742,-3.0777,-3.0811,-3.0857,-3.0879,-3.0933,-3.0963,-3.1006,-3.101,-3.0969,-3.1112,-3.1056,-3.112,-3.112,-3.1151,-3.1149,-3.1331,-3.1171,-3.1171,-3.117,-3.117,0,-3.0585,-3.0658,-3.0665,-3.0716,-3.0798,-3.0795,-3.0877,-3.0893,-3.0925,-3.0979,-3.0961,-3.1013,-3.1015,-3.1069,-3.1073,-3.1156,-3.117,-3.1177,-3.1178,-3.1179,-3.1178,-3.1199,-3.1191,-3.1175,-3.1174,-3.1173,-3.1172,0,-3.0714,-3.0722,-3.081,-3.0844,-3.0854,-3.0913,-3.0942,-3.0992,-3.1002,-3.1071,-3.1088,-3.1105,-3.1167,-3.1175,-3.1249,-3.1251,-3.1352,-3.1343,-3.1339,-3.1337,-3.14,-3.1394,-3.1602,-3.163,-3.1452,-3.1453,-3.1455,0,-3.0802,-3.0858,-3.0898,-3.0932,-3.0954,-3.1011,-3.1045,-3.1045,-3.1082,-3.1131,-3.1175,-3.1235,-3.1283,-3.1385,-3.1404,-3.1461,-3.1453,-3.1522,-3.1462,-3.1462,-3.1455,-3.1452,-3.1458,-3.1534,-3.1536,-3.1537,-3.1539,0,-3.0958,-3.0959,-3.1009,-3.1061,-3.1103,-3.1144,-3.1183,-3.1213,-3.1218,-3.1261,-3.1324,-3.1361,-3.1436,-3.1497,-3.1553,-3.1575,-3.1559,-3.1558,-3.1575,-3.1578,-3.1573,-3.1577,-3.1371,-3.1553,-3.1552,-3.155,-3.155,-3.1549,-3.107,-3.1118,-3.1154,-3.1211,-3.124,-3.1277,-3.1325,-3.1341,-3.1393,-3.1453,-3.145,-3.152,-3.1559,-3.1632,-3.1658,-3.1714,-3.1691,-3.1717,-3.1723,-3.173,-3.1736,-3.1564,-3.1724,-3.1724,-3.1723,-3.1723,-3.1723,0,-3.1225,-3.1246,-3.1298,-3.1353,-3.1398,-3.1378,-3.142,-3.1459,-3.1521,-3.1557,-3.1605,-3.1678,-3.1738,-3.1762,-3.1821,-3.1861,-3.1855,-3.1876,-3.1873,-3.1879,-3.1752,-3.1731,-3.188,-3.188,-3.188,-3.188,-3.188,-3.188,-3.131,-3.1392,-3.1397,-3.1494,-3.1515,-3.1582,-3.1609,-3.1643,-3.1672,-3.1755,-3.1803,-3.1818,-3.1851,-3.1912,-3.1966,-3.1972,-3.1994,-3.2019,-3.2022,-3.1903,-3.1887,-3.1872,-3.1852,-3.2024,-3.2024,-3.2143,-3.2144,-3.2145]},{"header":{"parameterUnit":"m.s-1","parameterCategory":1,"la1":30.2991,"la2":30.254,"lo1":-89.0895,"lo2":-89.0444,"dy":0.0017,"dx":0.0017,"nx":28,"ny":28,"refTime":"2026-02-13T09:00:00:Z","depth":0,"parameterNumber":3,"parameterNumberName":"V-component_of_WINDS"},"data":[0,0,0,0,0,0,0,0,0,0,0,0,0,0,0,0,0,0,0,0,0,0,0,0,0,0,0,0,0,0,0,0,0,0,0,0,0,0,0,0,0,0,0,0,0,0,0,0,0,0,0,0,0,0,0,0,0,0,-0.0406,-0.0405,0,-0.0266,-0.0264,-0.0263,-0.0188,-0.0188,-0.0187,-0.0187,-0.0045,-0.0042,-0.0038,0,0,0,0,0,0,0,0,0,0,0,0,0,-0.061,-0.0607,-0.0407,-0.0405,-0.0403,-0.0266,-0.0264,-0.0262,-0.0188,-0.0188,-0.0187,-0.0187,-0.0046,-0.0042,-0.0038,0,0,0,0,0,0,0,0,0,0,0,0,0,-0.0501,-0.0606,-0.0407,-0.0349,-0.0343,-0.0266,-0.0264,-0.0262,-0.0188,-0.0188,-0.0187,-0.0187,-0.0048,-0.0043,-0.0037,-0.0008,0,0,-0.002,-0.0018,0,0,0,0,0,0,0,0,-0.0507,-0.0494,-0.036,-0.0353,-0.0346,-0.0244,-0.0284,-0.0177,-0.0188,-0.0247,-0.0187,-0.0187,-0.0112,-0.0101,-0.0075,-0.0001,0.0005,-0.002,-0.0017,-0.0014,-0.0013,0,0,0,0,0,0,0,-0.0515,-0.0499,-0.0351,-0.0358,-0.0349,-0.033,-0.0315,-0.0263,-0.0182,-0.0242,-0.0236,-0.022,-0.0108,-0.0081,-0.0071,0.0007,-0.002,-0.0015,-0.0012,-0.001,0.0116,0.0116,0,0,0,0,0,0,-0.0532,-0.0506,-0.0355,-0.0347,-0.0428,-0.0327,-0.0309,-0.0277,-0.0183,-0.0168,-0.022,-0.0217,-0.009,-0.0078,-0.0066,-0.0023,-0.0014,-0.0009,-0.0006,0.0116,0.0116,0.0116,0,0,0,0,0,0,-0.0536,-0.0519,-0.0361,-0.0425,-0.0403,-0.0324,-0.0288,-0.0274,-0.0247,-0.0166,-0.0152,-0.0207,-0.0089,-0.0074,-0.0022,-0.0017,-0.0007,-0.0002,0.0116,0.0116,0.0116,0.0061,0,0,0,0,0,0,-0.0543,-0.0521,-0.0509,-0.0425,-0.04,-0.032,-0.0288,-0.0272,-0.0237,-0.0232,-0.015,-0.0137,-0.0088,-0.003,-0.0016,-0.0009,0.0003,0.0115,0.0116,0.0116,0.0063,0.006,0.0056,0,0,0,0,0,-0.055,-0.0531,-0.0509,-0.0492,-0.0384,-0.0319,-0.0305,-0.0249,-0.0237,-0.0224,-0.0172,-0.0139,-0.002,-0.0026,-0.0009,-0.0001,0.0115,0.0116,0.0116,0.0065,0.006,0.0057,0,0,0,0,0,0,-0.0619,-0.0519,-0.0494,-0.0447,-0.0392,-0.0307,-0.0289,-0.0256,-0.0204,-0.0201,-0.0133,-0.0116,-0.007,-0.003,-0.0038,0.0034,0.0051,0.0055,0.0007,0.0003,0.0,-0.001,0.0007,0,0,0,0,0,-0.0628,-0.0584,-0.05,-0.0467,-0.044,-0.037,-0.034,-0.0301,-0.0241,-0.0218,-0.0162,-0.0106,-0.0056,-0.0024,0.0026,0.0069,0.0089,0.0083,0.008,0.0077,0.0079,0.0107,0.0106,0.0116,0.0116,0.0116,0,0,-0.0648,-0.0588,-0.0565,-0.0479,-0.0432,-0.0387,-0.0351,-0.0306,-0.0272,-0.0211,-0.0158,-0.0116,-0.0048,-0.0,0.0023,0.0034,0.0081,0.0077,0.0074,0.0078,0.0107,0.0106,0.0105,0.0116,0.0116,0.0116,0,0,-0.066,-0.0612,-0.0577,-0.053,-0.0459,-0.0411,-0.0403,-0.0322,-0.0291,-0.0236,-0.0189,-0.0148,-0.0063,-0.0016,0.0018,0.0027,0.006,0.0041,0.0024,0.005,0.005,0.0049,0.0054,0.0055,0.0043,0.0043,0.0043,0,-0.0694,-0.0625,-0.0564,-0.0521,-0.0484,-0.0426,-0.039,-0.0347,-0.0263,-0.0239,-0.0228,-0.0118,-0.0069,-0.0008,-0.0006,0.002,0.0032,0.0032,0.0045,0.0045,0.0046,0.0051,0.0052,0.004,0.0041,0.0041,0.0041,0,-0.0668,-0.0621,-0.0602,-0.052,-0.0481,-0.0442,-0.0375,-0.0343,-0.0307,-0.026,-0.0205,-0.0143,-0.0078,-0.0061,-0.0026,0.0006,0.0011,0.0032,0.0051,0.0041,0.0048,0.005,0.0037,0.0037,0.0038,0.0039,0,0,-0.0721,-0.0605,-0.0599,-0.056,-0.0476,-0.0438,-0.0395,-0.033,-0.0303,-0.0247,-0.0208,-0.0137,-0.0115,-0.0076,-0.0035,-0.0012,-0.0007,0.0008,0.001,0.0004,0.0035,0.0018,0.002,0.0016,0.0016,0.0017,0.003,0,-0.0721,-0.0641,-0.0584,-0.0526,-0.0481,-0.0424,-0.0386,-0.033,-0.0285,-0.024,-0.019,-0.014,-0.0116,-0.0091,-0.0066,-0.0013,0.0,-0.0013,0.0053,0.0054,0.0035,0.0023,0.0005,0.0014,0.0032,0.0032,0.0033,0,-0.071,-0.0653,-0.0591,-0.0508,-0.0487,-0.0455,-0.0389,-0.0347,-0.0281,-0.025,-0.0205,-0.0162,-0.0114,-0.01,-0.0032,-0.0042,-0.0012,0.0019,0.002,0.0029,0.0043,0.0032,0.0018,0.002,0.0037,0.0036,0.0036,0,-0.0752,-0.0661,-0.0611,-0.058,-0.0483,-0.0461,-0.042,-0.0354,-0.0318,-0.0261,-0.0236,-0.0175,-0.0141,-0.0094,-0.0036,-0.0031,0.0027,0.0045,0.0055,0.0054,0.0065,0.0064,0.0057,0.0082,0.0082,0.0082,0.0082,0,-0.0757,-0.072,-0.0628,-0.0597,-0.0554,-0.0489,-0.0448,-0.0402,-0.0343,-0.0302,-0.025,-0.0212,-0.0138,-0.0091,-0.0045,0.0006,0.002,0.0047,0.0059,0.0043,0.004,0.0064,0.0066,0.0083,0.0083,0.0083,0.0082,0,-0.0797,-0.0734,-0.0675,-0.0588,-0.0565,-0.0537,-0.0462,-0.043,-0.0381,-0.0329,-0.0313,-0.0237,-0.0179,-0.0116,-0.0038,-0.0007,0.0042,0.0058,0.002,0.0027,0.0034,0.0033,0.0044,0.0049,0.0069,0.0069,0.0068,0,-0.0804,-0.0774,-0.0683,-0.0651,-0.0611,-0.056,-0.0522,-0.0456,-0.0419,-0.0341,-0.0317,-0.0255,-0.0201,-0.0111,-0.0049,0.0012,0.0031,0.0031,0.0041,0.0025,0.0033,0.0031,0.0035,0.0028,0.0027,0.0027,0.0026,0,-0.0822,-0.0791,-0.0738,-0.0674,-0.0629,-0.0576,-0.052,-0.0497,-0.0419,-0.038,-0.0319,-0.0277,-0.0195,-0.0134,-0.0065,-0.0022,0.0016,0.0023,0.0029,0.0013,-0.0009,0.0005,0.0013,0.0022,0.0023,0.0023,0.0023,0.0023,-0.0844,-0.0814,-0.0744,-0.0686,-0.0637,-0.0585,-0.055,-0.0496,-0.0444,-0.0371,-0.0335,-0.0274,-0.0207,-0.011,-0.0069,-0.0019,-0.0008,-0.0,0.0002,0.0003,-0.0,-0.0018,-0.0007,-0.0007,-0.0007,-0.0006,-0.0006,0,-0.0858,-0.0809,-0.0757,-0.0679,-0.0633,-0.0601,-0.0537,-0.0501,-0.0447,-0.0388,-0.0335,-0.0264,-0.0203,-0.0136,-0.0071,-0.0044,-0.0025,-0.0029,-0.003,-0.002,-0.0015,-0.0026,-0.0046,-0.0046,-0.0046,-0.0046,-0.0046,-0.0046,-0.0859,-0.0806,-0.0767,-0.0688,-0.064,-0.0579,-0.0545,-0.0496,-0.0448,-0.0371,-0.0319,-0.0275,-0.0212,-0.0141,-0.0084,-0.0065,-0.0043,-0.0052,-0.0028,-0.0024,-0.0021,-0.0018,-0.0028,-0.0048,-0.0048,-0.0037,-0.0037,-0.0037]}]]